FENGYUN 1C DEB, 31810

Orbit data source: Space-Track

FENGYUN 1C DEB, 31810 is space debris in SSO originally from a launch on Mon, 10 May 1999 UTC launched from the Taiyaun Space Center, China (TSC). Fengyun 1C debris stems from the Chinese weather satellite Fengyun-1C, which was intentionally destroyed by a Chinese anti-satellite missile in 2007. This event dramatically increased the amount of space debris, with thousands of trackable fragments posing hazards to satellites and human spaceflight. The Fengyun 1C debris cloud has become a focal point in discussions about space sustainability and the need for international regulations to prevent the creation of new debris.

Loading next visibility...
Identifier
31810, 1999-025CGY
Orbit
SSO
Country
Flag of CNCN / PRC
Related business
Manufacturer
Unknown
Mission
Spacecraft
Bus & Motor
Unknown
Mass
Unknown
Launch date (UTC)
1999-05-10 (27 years ago)
Launch vehicle
Unknown
Launch site
Taiyaun Space Center, China (TSC)
Object type
Payload
Rocket body
Debris
Shape & HBR
Unknown shape, 0.1 m
Radar Cross Section
Small (<0.1 m²)

Expand to show TLE details & history
Last TLE update: 1 day ago

TLE from 1 day ago
0 FENGYUN 1C DEB
1 31810U 99025CGY 26227.77304206  .00001144  00000-0  24762-3 0  9990
2 31810  98.2591 242.3277 0211545 110.1649 252.2435 14.47120047679719
Epoch: 2026-08-15T18:33Z
TLE epoch observation values (Epoch: 2026-08-15T18:33:10.833Z)
Latitude
-0.00009°
Longitude
-0.14654°
Altitude
786.799 km
Speed
7.435 km/s
True Right ascension
16h 09m 18s
True Declination
0° 00' 00"
Sunlit
Object was in daylight at epoch
Visualization orbit readout
Latitude
Unknown
Longitude
Unknown
Altitude
Unknown
Speed
Unknown
Apparent Right ascension
Unknown
Apparent Declination
Unknown
Sunlit
N/A
Visualization observer readout
Local Sidereal Time
17:11:42
Azimuth
Unknown
Elevation
Unknown
Doppler factor
Unknown
Orbital elements
Apogee altitude
882.585 km
Perigee altitude
581.755 km
Semi-major axis
7,110.307 km
Eccentricity
0.02115
Inclination
98.2591°
RAAN
242.3277°
Arg. of periapsis
110.1649°
True anomaly
249.95394°
Mean anomaly
252.2435°
Eccentric anomaly
251.09681°
Mean motion
3.62002 °/min
Orbital period
99.45 mins
BSTAR
0.00024762
Loading maneuver chart data...
Computing Atmospheric mass density...
Loading historical data...
Loading historical data...
Loading historical data...
Loading historical data...
Loading historical data...
Loading historical data...
Loading historical data...

Documentation

Showing up to 5 results
|